map of CWB home
Great Circle Mapper logo
CWB - Airport
Location
City:  Curitiba, Paraná, Brazil
Name:Afonso Pena International Airport
ICAO / IATA:SBCT / CWB

Details
Type:Airport (Aerodrome, Airfield)
Use:Public/Civil, International (customs port of entry)
Latitude:25°31'43"S (-25.528474)
Longitude:49°10'33"W (-49.175774)
Datum:WGS 1984
Elevation:2988 ft (911 m)
Variation:19.25°W (WMM2015 magnetic declination)
-0.14° annual change
Runways:2
Longest:7267 × 148 ft (2215 × 45 m), paved

Time
Time Zone:UTC-3 (DST-2)
Local Time:

Weather
METAR:SBCT 271300Z 04006KT 9999 FEW011 BKN014 18/14 Q1023
TAF:SBCT 271030Z 2712/2812 08004KT 9999 SCT025 TX22/2717Z TN13/2808Z PROB40 2712/2714 BKN010 BKN014
BECMG 2713/2715 03004KT
BECMG 2721/2723 BKN007
RMK PEL

Related Locations
Nearby:
Farthest:MMD: 12407 mi / 19968 km
Minami Daito Jima, Okinawa, JP

Find:

   beyond  
but within

Other Information
Maps:
NOTAMs:
Links:
Sources:

  
flag of Brazil
flag of Paraná
flag of Curitiba
  

Sectional Chart

Flight Planning
at skyvector.com

Satellite Image

Google Maps Satellite View

 

Copyright © 2004-2015 Karl L. Swartz. All rights reserved.
The Great Circle Mapper name and logo are trademarks of the Great Circle Mapper.
All other trademarks mentioned herein belong to their respective owners.
Please see credits for attibutions and further copyright information.

  Follow gcmap on Facebook Follow gcmap on Twitter Follow gcmap on Google+

hCard Microformat

Geo Microformat